Weather History for Talkeetna, AK

Change the Weather History Date:

Monday, February 25, 2013

  Actual Average Record
Temperature  
Mean Temperature 28 °F -  
Max Temperature 35 °F 30 °F 50 °F (2004)
Min Temperature 21 °F 12 °F -39 °F (1971)
Degree Days  
Heating Degree Days 37    
Moisture  
Dew Point 14 °F    
Average Humidity 59    
Maximum Humidity 88    
Minimum Humidity 42    
Precipitation  
Precipitation 0.00 in - - ()
Snow  
Snow 0.00 in - - ()
Snow Depth 32.00 in    
Sea Level Pressure  
Sea Level Pressure 29.68 in    
Wind  
Wind Speed 7 mph (NNE)    
Max Wind Speed 13 mph    
Max Gust Speed 21 mph    
Visibility 10 miles    
Events      
Averages and records for this station are not official NWS values.
T = Trace of Precipitation, MM = Missing Value Source: NWS Daily Summary

Daily Weather History Graph

Daily Weather History Graph

Search for Another Location

Airport:

Trip Planner

Search our weather history database for the weather conditions in past years. The results will help you decide how hot, cold, wet, or windy it might be!

Date:

Astronomy

Feb. 25, 2013 Rise Set
Actual Time 8:14 AM AKST 6:13 PM AKST
Civil Twilight 7:29 AM AKST 6:58 PM AKST
Nautical Twilight 6:37 AM AKST 7:50 PM AKST
Astronomical Twilight 5:45 AM AKST 8:43 PM AKST
Moon 6:59 PM AKST (2/25) 7:36 AM AKST (2/25)
Length of Visible Light 11h 29m
Length of Day
9h 58m
Full, 100% of the Moon is Illuminated
Feb 25
Full
Mar 4
Last Quarter
Mar 11
New
Mar 19
First Quarter
Mar 27
Full

Hourly Weather History & Observations

Time (AKST) Temp. Windchill Dew Point Humidity Pressure Visibility Wind Dir Wind Speed Gust Speed Precip Events Conditions
12:53 AM 24.1 °F 19.7 °F 21.0 °F 88% 29.68 in 10.0 mi NNE 3.5 mph - N/A   Partly Cloudy
1:53 AM 21.9 °F 15.7 °F 18.0 °F 85% 29.69 in 10.0 mi North 4.6 mph - N/A   Clear
3:53 AM 21.0 °F 12.4 °F 16.0 °F 81% 29.70 in 10.0 mi North 6.9 mph - N/A   Overcast
4:53 AM 23.0 °F 13.9 °F 17.1 °F 78% 29.70 in 10.0 mi NNE 8.1 mph - N/A   Overcast
5:53 AM 23.0 °F 12.4 °F 16.0 °F 74% 29.70 in 10.0 mi NNE 10.4 mph 16.1 mph N/A   Overcast
6:53 AM 23.0 °F 14.7 °F 15.1 °F 72% 29.70 in 10.0 mi NNE 6.9 mph - N/A   Overcast
7:53 AM 23.0 °F 13.1 °F 14.0 °F 68% 29.69 in 10.0 mi NNE 9.2 mph - N/A   Overcast
8:53 AM 21.9 °F 13.4 °F 14.0 °F 72% 29.69 in 10.0 mi North 6.9 mph - N/A   Clear
9:53 AM 25.0 °F 14.8 °F 12.0 °F 58% 29.69 in 10.0 mi NNE 10.4 mph 17.3 mph N/A   Clear
10:53 AM 27.0 °F 17.3 °F 12.0 °F 53% 29.69 in 10.0 mi NNE 10.4 mph 20.7 mph N/A   Clear
11:53 AM 28.9 °F 19.2 °F 12.9 °F 51% 29.70 in 10.0 mi NNE 11.5 mph 19.6 mph N/A   Clear
12:53 PM 30.9 °F 21.2 °F 12.9 °F 47% 29.69 in 10.0 mi NNE 12.7 mph 19.6 mph N/A   Clear
1:53 PM 32.0 °F 23.6 °F 14.0 °F 48% 29.68 in 10.0 mi NE 10.4 mph - N/A   Clear
2:53 PM 35.1 °F 29.3 °F 14.0 °F 42% 29.67 in 10.0 mi NNE 6.9 mph - N/A   Clear
3:53 PM 34.0 °F 25.5 °F 14.0 °F 44% 29.66 in 10.0 mi NNE 11.5 mph - N/A   Clear
4:53 PM 33.1 °F 26.9 °F 12.9 °F 43% 29.66 in 10.0 mi North 6.9 mph - N/A   Clear
5:53 PM 30.9 °F 24.3 °F 12.9 °F 47% 29.66 in 10.0 mi NNE 6.9 mph - N/A   Clear
6:53 PM 30.0 °F 24.1 °F 12.0 °F 47% 29.66 in 10.0 mi North 5.8 mph - N/A   Clear
7:53 PM 28.9 °F 21.1 °F 10.9 °F 47% 29.66 in 10.0 mi NNE 8.1 mph - N/A   Clear
8:53 PM 28.0 °F 20.8 °F 10.9 °F 49% 29.66 in 10.0 mi North 6.9 mph - N/A   Clear
9:53 PM 28.0 °F 22.8 °F 10.9 °F 49% 29.65 in 10.0 mi North 4.6 mph - N/A   Clear
10:53 PM 28.0 °F 20.8 °F 10.9 °F 49% 29.65 in 10.0 mi North 6.9 mph - N/A   Clear
11:53 PM 28.0 °F - 12.0 °F 51% 29.65 in 10.0 mi Calm Calm - N/A   Clear